| time (UTC) | temp C | wind direction | speed KPH | gust KPH | rain 1hr cm | rain 24hr cm | rain mn cm | humidity % | barometer mb |
| 20260901140626 | 17 | 81 | 0.0 | 6.4 | 0.00 | 0.00 | 0.00 | 78 | 1011.4 |
| 20260901135626 | 17 | 265 | 0.0 | 1.6 | 0.00 | 0.00 | 0.00 | 81 | 1011.6 |
| 20260901134626 | 17 | 265 | 0.0 | 1.6 | 0.00 | 0.00 | 0.00 | 81 | 1011.6 |
| 20260901133627 | 16 | 292 | 0.0 | 6.4 | 0.00 | 0.00 | 0.00 | 86 | 1011.6 |
| 20260901132626 | 16 | 292 | 0.0 | 6.4 | 0.00 | 0.00 | 0.00 | 86 | 1011.6 |
| 20260901131627 | 15 | 284 | 0.0 | 1.6 | 0.00 | 0.00 | 0.00 | 89 | 1011.6 |
| 20260901130626 | 15 | 284 | 0.0 | 1.6 | 0.00 | 0.00 | 0.00 | 89 | 1011.6 |
| 20260901125625 | 14 | 275 | 0.0 | 0.0 | 0.00 | 0.00 | 0.00 | 90 | 1011.5 |
| 20260901124626 | 14 | 275 | 0.0 | 0.0 | 0.00 | 0.00 | 0.00 | 90 | 1011.5 |
| 20260901123626 | 13 | 275 | 0.0 | 1.6 | 0.00 | 0.00 | 0.00 | 91 | 1011.2 |
| 20260901122626 | 13 | 275 | 0.0 | 1.6 | 0.00 | 0.00 | 0.00 | 91 | 1011.2 |
| 20260901121629 | 13 | 286 | 0.0 | 3.2 | 0.00 | 0.00 | 0.00 | 90 | 1011.0 |
| 20260901120630 | 13 | 286 | 0.0 | 3.2 | 0.00 | 0.00 | 0.00 | 90 | 1011.0 |
| 20260901115625 | 14 | 326 | 0.0 | 1.6 | 0.00 | 0.00 | 0.00 | 89 | 1011.0 |
| 20260901114627 | 14 | 326 | 0.0 | 1.6 | 0.00 | 0.00 | 0.00 | 89 | 1011.0 |
| 20260901113630 | 14 | 277 | 0.0 | 1.6 | 0.00 | 0.00 | 0.00 | 88 | 1010.9 |
| 20260901112626 | 14 | 277 | 0.0 | 1.6 | 0.00 | 0.00 | 0.00 | 88 | 1010.9 |
| 20260901111627 | 15 | 300 | 0.0 | 0.0 | 0.00 | 0.00 | 0.00 | 86 | 1010.7 |
| 20260901110627 | 15 | 300 | 0.0 | 0.0 | 0.00 | 0.00 | 0.00 | 86 | 1010.7 |
| 20260901105627 | 15 | 269 | 0.0 | 3.2 | 0.00 | 0.00 | 0.00 | 85 | 1010.7 |
| 20260901104626 | 15 | 279 | 1.6 | 8.0 | 0.00 | 0.00 | 0.00 | 83 | 1010.6 |
| 20260901103626 | 15 | 279 | 1.6 | 8.0 | 0.00 | 0.00 | 0.00 | 83 | 1010.6 |
| 20260901102626 | 15 | 259 | 0.0 | 3.2 | 0.00 | 0.00 | 0.00 | 82 | 1010.5 |
| 20260901101627 | 15 | 259 | 0.0 | 3.2 | 0.00 | 0.00 | 0.00 | 82 | 1010.5 |
| 20260901100626 | 16 | 284 | 0.0 | 1.6 | 0.00 | 0.00 | 0.00 | 81 | 1010.5 |
| 20260901094628 | 16 | 277 | 0.0 | 1.6 | 0.00 | 0.00 | 0.00 | 80 | 1010.4 |
| 20260901093627 | 16 | 277 | 0.0 | 1.6 | 0.00 | 0.00 | 0.00 | 80 | 1010.4 |
| 20260901092627 | 17 | 281 | 0.0 | 3.2 | 0.00 | 0.00 | 0.00 | 78 | 1010.3 |
| 20260901091627 | 17 | 281 | 0.0 | 3.2 | 0.00 | 0.00 | 0.00 | 78 | 1010.3 |
| 20260901090627 | 17 | 219 | 0.0 | 6.4 | 0.00 | 0.00 | 0.00 | 77 | 1010.4 |
| 20260901085627 | 17 | 219 | 0.0 | 6.4 | 0.00 | 0.00 | 0.00 | 77 | 1010.4 |
| 20260901084627 | 17 | 271 | 0.0 | 11.3 | 0.00 | 0.00 | 0.00 | 79 | 1010.6 |
| 20260901083631 | 17 | 271 | 0.0 | 11.3 | 0.00 | 0.00 | 0.00 | 79 | 1010.6 |
| 20260901082627 | 18 | 267 | 0.0 | 9.7 | 0.00 | 0.00 | 0.00 | 78 | 1010.7 |
| 20260901081629 | 18 | 267 | 0.0 | 9.7 | 0.00 | 0.00 | 0.00 | 78 | 1010.7 |
| 20260901071637 | 16 | 284 | 0.0 | 0.0 | 0.00 | 0.00 | 0.00 | 87 | 1010.9 |
| 20260901070628 | 16 | 284 | 0.0 | 0.0 | 0.00 | 0.00 | 0.00 | 87 | 1010.9 |
| 20260901065630 | 16 | 284 | 0.0 | 1.6 | 0.00 | 0.00 | 0.00 | 88 | 1011.0 |
| 20260901064630 | 16 | 284 | 0.0 | 1.6 | 0.00 | 0.00 | 0.00 | 88 | 1011.0 |
| 20260901055629 | 16 | 57 | 0.0 | 1.6 | 0.00 | 0.00 | 0.00 | 88 | 1010.8 |
| 20260901054628 | 16 | 57 | 0.0 | 1.6 | 0.00 | 0.00 | 0.00 | 88 | 1010.8 |
| 20260901040629 | 17 | 247 | 0.0 | 0.0 | 0.00 | 0.00 | 0.00 | 87 | 1010.7 |
| 20260901035628 | 17 | 247 | 0.0 | 0.0 | 0.00 | 0.00 | 0.00 | 87 | 1010.7 |
| 20260901034630 | 16 | 256 | 0.0 | 0.0 | 0.00 | 0.00 | 0.00 | 88 | 1010.7 |
| 20260901033629 | 16 | 256 | 0.0 | 0.0 | 0.00 | 0.00 | 0.00 | 88 | 1010.7 |
| 20260901032630 | 16 | 256 | 0.0 | 0.0 | 0.00 | 0.00 | 0.00 | 89 | 1010.7 |
| 20260901031628 | 16 | 256 | 0.0 | 0.0 | 0.00 | 0.00 | 0.00 | 89 | 1010.7 |
| 20260901030629 | 16 | 256 | 0.0 | 0.0 | 0.00 | 0.00 | 0.00 | 91 | 1010.7 |
| 20260901025630 | 16 | 256 | 0.0 | 0.0 | 0.00 | 0.00 | 0.00 | 91 | 1010.7 |
| 20260901022630 | 16 | 256 | 0.0 | 0.0 | 0.00 | 0.00 | 0.00 | 92 | 1010.6 |
| 20260901021630 | 16 | 256 | 0.0 | 0.0 | 0.00 | 0.00 | 0.00 | 92 | 1010.6 |
| 20260901001531 | 22 | 257 | 0.0 | 0.0 | 0.00 | 0.00 | 0.00 | 71 | 1009.5 |
| 20260901000530 | 22 | 257 | 0.0 | 0.0 | 0.00 | 0.00 | 0.00 | 71 | 1009.5 |
| 20260831235530 | 23 | 257 | 0.0 | 1.6 | 0.00 | 0.00 | 0.00 | 68 | 1009.6 |
| 20260831234531 | 23 | 257 | 0.0 | 1.6 | 0.00 | 0.00 | 0.00 | 68 | 1009.6 |
| 20260831231540 | 25 | 300 | 0.0 | 1.6 | 0.00 | 0.00 | 0.00 | 57 | 1009.4 |
| 20260831230531 | 25 | 300 | 0.0 | 1.6 | 0.00 | 0.00 | 0.00 | 57 | 1009.4 |
| 20260831225530 | 26 | 163 | 0.0 | 3.2 | 0.00 | 0.00 | 0.00 | 58 | 1009.1 |
| 20260831224530 | 26 | 163 | 0.0 | 3.2 | 0.00 | 0.00 | 0.00 | 58 | 1009.1 |
| 20260831223530 | 26 | 252 | 0.0 | 9.7 | 0.00 | 0.00 | 0.00 | 57 | 1009.2 |
| 20260831222530 | 26 | 194 | 6.4 | 9.7 | 0.00 | 0.00 | 0.00 | 57 | 1009.2 |
| 20260831221531 | 26 | 194 | 6.4 | 9.7 | 0.00 | 0.00 | 0.00 | 57 | 1009.2 |
| 20260831220531 | 27 | 201 | 0.0 | 11.3 | 0.00 | 0.00 | 0.00 | 59 | 1009.4 |
| 20260831215530 | 27 | 201 | 0.0 | 11.3 | 0.00 | 0.00 | 0.00 | 59 | 1009.4 |
| 20260831214532 | 27 | 211 | 3.2 | 11.3 | 0.00 | 0.00 | 0.00 | 61 | 1009.4 |
| 20260831213532 | 27 | 211 | 3.2 | 11.3 | 0.00 | 0.00 | 0.00 | 61 | 1009.4 |
| 20260831212532 | 27 | 217 | 0.0 | 14.5 | 0.00 | 0.00 | 0.00 | 63 | 1009.4 |
| 20260831211532 | 27 | 217 | 0.0 | 14.5 | 0.00 | 0.00 | 0.00 | 63 | 1009.4 |
| 20260831210531 | 26 | 201 | 9.7 | 12.9 | 0.00 | 0.00 | 0.00 | 62 | 1009.4 |
| 20260831205532 | 26 | 201 | 9.7 | 12.9 | 0.00 | 0.00 | 0.00 | 62 | 1009.4 |
| 20260831204531 | 26 | 208 | 3.2 | 9.7 | 0.00 | 0.00 | 0.00 | 70 | 1009.2 |
| 20260831202532 | 26 | 342 | 1.6 | 16.1 | 0.00 | 0.00 | 0.00 | 70 | 1009.2 |
| 20260831201531 | 26 | 342 | 1.6 | 16.1 | 0.00 | 0.00 | 0.00 | 70 | 1009.2 |
| 20260831200532 | 25 | 211 | 0.0 | 6.4 | 0.00 | 0.00 | 0.00 | 73 | 1009.2 |
| 20260831194532 | 25 | 296 | 0.0 | 11.3 | 0.00 | 0.00 | 0.00 | 84 | 1009.1 |
| 20260831193532 | 25 | 296 | 0.0 | 11.3 | 0.00 | 0.00 | 0.00 | 84 | 1009.1 |
| 20260831192532 | 23 | 235 | 0.0 | 9.7 | 0.00 | 0.00 | 0.00 | 87 | 1009.3 |
| 20260831191532 | 22 | 344 | 8.0 | 6.4 | 0.00 | 0.00 | 0.00 | 91 | 1009.4 |
| 20260831190533 | 22 | 344 | 8.0 | 6.4 | 0.00 | 0.00 | 0.00 | 91 | 1009.4 |
| 20260831185533 | 22 | 308 | 0.0 | 6.4 | 0.00 | 0.00 | 0.00 | 92 | 1009.2 |
| 20260831184533 | 22 | 308 | 0.0 | 6.4 | 0.00 | 0.00 | 0.00 | 92 | 1009.2 |
| 20260831183532 | 22 | 5 | 0.0 | 6.4 | 0.00 | 0.00 | 0.00 | 96 | 1009.1 |
| 20260831182533 | 22 | 5 | 0.0 | 6.4 | 0.00 | 0.00 | 0.00 | 96 | 1009.1 |
| 20260831181533 | 21 | 293 | 0.0 | 9.7 | 0.00 | 0.00 | 0.00 | 97 | 1009.3 |
| 20260831180532 | 21 | 293 | 0.0 | 9.7 | 0.00 | 0.00 | 0.00 | 97 | 1009.3 |
| 20260831175532 | 21 | 221 | 9.7 | 4.8 | 0.00 | 0.00 | 0.00 | 97 | 1009.3 |
| 20260831174532 | 21 | 221 | 9.7 | 4.8 | 0.00 | 0.00 | 0.00 | 97 | 1009.3 |
| 20260831173533 | 21 | 226 | 0.0 | 3.2 | 0.00 | 0.00 | 0.00 | 98 | 1009.2 |
| 20260831172533 | 21 | 226 | 0.0 | 3.2 | 0.00 | 0.00 | 0.00 | 98 | 1009.2 |
| 20260831171532 | 21 | 246 | 0.0 | 9.7 | 0.00 | 0.00 | 0.00 | 97 | 1009.3 |
| 20260831170533 | 21 | 246 | 0.0 | 9.7 | 0.00 | 0.00 | 0.00 | 97 | 1009.3 |
| 20260831165533 | 20 | 202 | 3.2 | 8.0 | 0.00 | 0.00 | 0.00 | 98 | 1009.3 |
| 20260831164534 | 20 | 202 | 3.2 | 8.0 | 0.00 | 0.00 | 0.00 | 98 | 1009.3 |
| 20260831163532 | 20 | 225 | 3.2 | 3.2 | 0.00 | 0.00 | 0.00 | 98 | 1009.1 |
| 20260831162532 | 20 | 225 | 3.2 | 3.2 | 0.00 | 0.00 | 0.00 | 98 | 1009.1 |
| 20260831161533 | 20 | 219 | 0.0 | 6.4 | 0.00 | 0.00 | 0.00 | 97 | 1009.2 |
| 20260831160533 | 20 | 240 | 0.0 | 0.0 | 0.00 | 0.00 | 0.00 | 98 | 1009.1 |
| 20260831155533 | 20 | 240 | 0.0 | 0.0 | 0.00 | 0.00 | 0.00 | 98 | 1009.1 |
| 20260831154534 | 20 | 240 | 0.0 | 3.2 | 0.00 | 0.00 | 0.00 | 98 | 1009.0 |
| 20260831153534 | 20 | 240 | 0.0 | 3.2 | 0.00 | 0.00 | 0.00 | 98 | 1009.0 |
| 20260831152533 | 20 | 240 | 0.0 | 1.6 | 0.00 | 0.00 | 0.00 | 98 | 1008.8 |
| 20260831151533 | 20 | 240 | 0.0 | 1.6 | 0.00 | 0.00 | 0.00 | 98 | 1008.8 |
| 20260831150533 | 20 | 240 | 0.0 | 8.0 | 0.00 | 0.00 | 0.00 | 98 | 1008.4 |
| 20260831145534 | 20 | 240 | 0.0 | 8.0 | 0.00 | 0.00 | 0.00 | 98 | 1008.4 |
| 20260831144533 | 19 | 240 | 0.0 | 1.6 | 0.00 | 0.00 | 0.00 | 98 | 1008.3 |
| 20260831143534 | 19 | 240 | 0.0 | 1.6 | 0.00 | 0.00 | 0.00 | 98 | 1008.3 |
| 20260831142533 | 18 | 240 | 0.0 | 0.0 | 0.00 | 0.00 | 0.00 | 98 | 1008.0 |
| 20260831141534 | 18 | 240 | 0.0 | 0.0 | 0.00 | 0.00 | 0.00 | 98 | 1008.0 |